Date,TemperatureHighF,TemperatureAvgF,TemperatureLowF,DewpointHighF,DewpointAvgF,DewpointLowF,HumidityHigh,HumidityAvg,HumidityLow,PressureMaxIn,PressureMinIn,WindSpeedMaxMPH,WindSpeedAvgMPH,GustSpeedMaxMPH,PrecipitationSumIn
2013-2-1,51.5,47.2,43.2,45.6,42.9,40.8,91,85,77,30.35,30.30,6,3,10,0.00
2013-2-2,52.6,44.0,34.4,45.4,39.8,32.9,95,86,74,30.32,30.25,3,0,5,0.00
2013-2-3,46.3,44.2,34.8,42.6,41.6,33.4,95,91,86,30.32,30.25,2,0,6,0.00
2013-2-4,47.0,44.0,41.4,42.1,40.9,38.8,93,89,82,29.96,29.94,2,0,4,0.00
2013-2-5,53.7,48.1,43.5,45.3,42.4,40.5,91,81,62,30.01,29.89,8,3,17,0.10
2013-2-6,48.1,47.0,42.5,43.8,42.0,40.6,93,83,77,30.09,29.82,5,2,14,0.07
2013-2-7,49.4,40.6,30.3,39.3,34.7,28.3,93,80,60,30.19,30.01,6,1,9,0.00
2013-2-8,48.7,38.3,28.6,41.7,33.4,26.8,96,84,62,30.31,30.19,7,1,11,0.01
2013-2-9,48.4,45.0,37.6,43.5,41.2,35.5,92,87,79,30.31,30.25,3,0,5,0.01
2013-2-10,46.7,45.1,39.6,42.5,38.1,36.6,92,77,71,30.35,30.31,5,2,10,0.00
2013-2-11,47.6,44.0,42.7,42.3,41.6,40.9,95,91,79,30.38,30.35,3,1,5,0.05
2013-2-12,51.2,48.7,46.1,48.6,46.8,44.6,96,93,88,30.46,30.41,3,0,5,0.14
2013-2-13,52.2,45.3,34.4,46.0,40.2,32.9,95,83,71,30.53,30.45,6,2,9,0.02
2013-2-14,46.7,43.1,34.3,44.2,41.0,32.8,95,92,86,30.58,30.53,4,0,5,0.00
2013-2-15,57.8,50.9,40.3,47.9,44.6,38.1,93,79,68,30.41,30.20,7,3,12,0.00
2013-2-16,48.8,43.2,40.2,42.7,39.8,37.4,98,88,78,30.27,30.24,4,1,15,0.07
2013-2-17,50.0,44.4,38.6,41.8,38.5,36.6,96,80,63,30.30,30.15,5,1,9,0.00
2013-2-18,45.5,43.5,40.6,38.3,37.0,35.3,89,78,70,29.99,29.77,6,2,11,0.03
2013-2-19,52.9,45.8,33.1,41.2,37.1,30.8,91,72,54,30.00,29.78,5,2,10,0.00
2013-2-20,45.0,42.4,40.4,40.7,39.2,37.3,99,89,79,30.09,30.00,4,1,7,0.24
2013-2-21,45.0,42.3,39.0,41.7,40.1,37.6,95,92,86,30.16,30.09,4,1,10,0.28
2013-2-22,47.6,42.1,36.6,45.7,39.6,34.5,94,91,85,30.02,29.85,7,3,15,0.89
2013-2-23,48.3,40.4,33.8,43.2,36.2,32.3,95,85,71,30.44,30.29,11,2,14,0.33
2013-2-24,48.3,46.3,35.3,39.7,36.9,34.0,95,70,64,30.43,30.04,5,3,15,0.00
2013-2-25,50.9,41.9,36.5,42.4,37.4,34.4,93,84,65,30.37,30.19,9,3,23,0.42
2013-2-26,48.5,45.5,42.0,39.9,37.3,35.6,86,73,64,30.36,30.24,7,2,12,0.01
2013-2-27,50.8,47.9,41.3,44.2,42.4,39.7,94,81,74,30.31,30.24,6,2,12,0.02
2013-2-28,54.2,51.8,49.3,52.5,50.2,47.9,96,95,93,30.40,30.25,3,0,9,0.72